Regional Weather Roundup
Issued by NWS

Home | Current Version | Previous Version | Graphics & Text | Print | Product List | Glossary Off
Versions: 1 2 3 4 5 6 7 8 9 10 11 12 13 14 15 16 17 18 19 20 21 22 23 24 25 26 27 28 29 30 31 32 33 34 35 36 37 38 39 40 41 42 43 44 45 46 47 48 49 50

000
ASUS43 KTOP 271659
RWRKS

WEATHER ROUNDUP FOR KANSAS
NATIONAL WEATHER SERVICE GOODLAND KS
1200 PM CDT WED MAY 27 2015

NOTE:  "FAIR" INDICATES FEW OR NO CLOUDS BELOW 12,000 FEET WITH NO
SIGNIFICANT WEATHER AND/OR OBSTRUCTIONS TO VISIBILITY.

KSZ001>006-013>018-027>032-041>047-271800-
NORTHWEST KANSAS

CITY           SKY/WX    TMP DP  RH WIND       PRES   REMARKS
GOODLAND       CLOUDY    68  57  68 S16G25    30.08S
HAYS           CLOUDY    73  57  56 E12       30.09S
HILL CITY      LGT RAIN  68  57  68 SE7       30.10R
RUSSELL        PTSUNNY   75  58  55 E12       30.08S
$$

KSZ061>065-074>080-084>089-271800-
SOUTHWEST KANSAS

CITY           SKY/WX    TMP DP  RH WIND       PRES   REMARKS
DODGE CITY     MOSUNNY   75  63  66 E12       30.09R
ELKHART          N/A     78  56  46 S13         N/A
GARDEN CITY    PTSUNNY   75  60  59 SE8       30.07F
GREAT BEND     CLOUDY    73  57  56 SE15      30.09S
LIBERAL        SUNNY     81  57  44 S10G17    30.08S
$$

KSZ066>073-081>083-090>101-271800-
SOUTHEAST KANSAS

CITY           SKY/WX    TMP DP  RH WIND       PRES   REMARKS
CHANUTE        MOSUNNY   77  60  55 VRB6      30.11R
COFFEYVILLE    MOSUNNY   78  66  66 S7        30.10R
HUTCHINSON     PTSUNNY   74  58  57 SE12      30.11R
NEWTON         MOSUNNY   73  55  53 SE10      30.14R
PARSONS        MOSUNNY   79  67  66 VRB5      30.11S
WICHITA INTL   PTSUNNY   77  64  64 SE14      30.09S
WICHITA JABRA  PTSUNNY   76  62  62 SE9       30.10S
WINFIELD       MOSUNNY   77  65  66 E8        30.10S
$$

KSZ007>012-019>026-033>040-048>060-102>105-271800-
NORTHEAST KANSAS

CITY           SKY/WX    TMP DP  RH WIND       PRES   REMARKS
CONCORDIA      MOSUNNY   76  49  38 E9        30.10R
EMPORIA        MOSUNNY   75  56  51 SE9       30.11R
LAWRENCE       SUNNY     78  54  43 E8        30.10S
MANHATTAN      MOSUNNY   77  52  41 E7        30.09R
OLATHE IND     SUNNY     78  53  41 E5        30.11R
OLATHE EXE     SUNNY     77  54  44 E6        30.10R
SALINA         SUNNY     77  55  46 VRB7G17   30.10R
TOPEKA BILLARD SUNNY     77  56  48 VRB6      30.10R
TOPEKA FORBES  SUNNY     78  53  41 E6        30.11R
$$


USA.gov is the U.S. government's official web portal to all federal, state and local government web resources and services.